Time,TemperatureF,DewpointF,PressureIn,WindDirection,WindDirectionDegrees,WindSpeedMPH,WindSpeedGustMPH,Humidity,HourlyPrecipIn,Conditions,Clouds,dailyrainin,SoftwareType,DateUTC
2017-01-19 00:02:00,35.0,31.2,29.91,North,357,0.0,0.0,86,0.00,,OVC010,0.00,VWS V14.01,2017-01-19 05:02:00,
2017-01-19 00:13:00,35.0,31.2,29.91,West,264,0.0,0.0,86,0.00,,OVC010,0.00,VWS V14.01,2017-01-19 05:13:00,
2017-01-19 00:22:00,35.0,31.5,29.92,West,270,0.0,0.0,87,0.00,,OVC010,0.00,VWS V14.01,2017-01-19 05:22:00,
2017-01-19 00:27:00,35.0,31.5,29.92,North,357,0.0,0.0,87,0.00,,OVC010,0.00,VWS V14.01,2017-01-19 05:27:00,
2017-01-19 00:32:00,34.9,31.4,29.92,North,357,0.0,0.0,87,0.00,,OVC010,0.00,VWS V14.01,2017-01-19 05:32:00,
2017-01-19 00:37:00,34.9,31.4,29.92,North,357,0.0,0.0,87,0.00,,OVC010,0.00,VWS V14.01,2017-01-19 05:37:00,
2017-01-19 00:47:00,34.9,31.4,29.91,North,357,0.0,0.0,87,0.00,,OVC010,0.00,VWS V14.01,2017-01-19 05:47:00,
2017-01-19 00:52:00,34.9,31.4,29.91,North,357,0.0,0.0,87,0.00,,OVC010,0.00,VWS V14.01,2017-01-19 05:52:00,
2017-01-19 00:57:00,34.9,31.4,29.91,North,357,0.0,0.0,87,0.00,,OVC010,0.00,VWS V14.01,2017-01-19 05:57:00,
2017-01-19 01:02:00,34.9,31.4,29.91,North,357,0.0,0.0,87,0.00,,OVC010,0.00,VWS V14.01,2017-01-19 06:02:00,
2017-01-19 01:12:00,34.9,31.4,29.91,North,357,0.0,0.0,87,0.00,,OVC010,0.00,VWS V14.01,2017-01-19 06:12:00,
2017-01-19 01:17:00,34.9,31.4,29.91,West,264,0.0,0.0,87,0.00,,OVC010,0.00,VWS V14.01,2017-01-19 06:17:00,
2017-01-19 01:22:00,34.9,31.4,29.91,North,357,0.0,0.0,87,0.00,,OVC010,0.00,VWS V14.01,2017-01-19 06:22:00,
2017-01-19 01:32:00,34.7,31.2,29.91,North,357,0.0,0.0,87,0.00,,OVC010,0.00,VWS V14.01,2017-01-19 06:32:00,
2017-01-19 01:37:00,34.7,31.2,29.91,North,357,0.0,0.0,87,0.00,,OVC010,0.00,VWS V14.01,2017-01-19 06:37:00,
2017-01-19 01:42:00,34.7,31.2,29.91,North,357,0.0,0.0,87,0.00,,OVC009,0.00,VWS V14.01,2017-01-19 06:42:00,
2017-01-19 01:47:00,34.7,31.2,29.90,North,357,0.0,0.0,87,0.00,,OVC009,0.00,VWS V14.01,2017-01-19 06:47:00,
2017-01-19 01:52:00,34.7,31.2,29.90,North,357,0.0,0.0,87,0.00,,OVC009,0.00,VWS V14.01,2017-01-19 06:52:00,
2017-01-19 01:57:00,34.7,31.5,29.90,North,357,0.0,0.0,88,0.00,,OVC009,0.00,VWS V14.01,2017-01-19 06:57:00,
2017-01-19 02:02:00,34.7,31.5,29.90,West,264,0.0,0.0,88,0.00,,OVC009,0.00,VWS V14.01,2017-01-19 07:02:00,
2017-01-19 02:12:00,34.7,31.5,29.90,North,357,0.0,0.0,88,0.00,,OVC009,0.00,VWS V14.01,2017-01-19 07:12:00,
2017-01-19 02:17:00,34.7,31.5,29.92,North,357,0.0,0.0,88,0.00,,OVC009,0.00,VWS V14.01,2017-01-19 07:17:00,
2017-01-19 02:27:00,34.7,31.5,29.92,North,357,0.0,0.0,88,0.00,,OVC009,0.00,VWS V14.01,2017-01-19 07:27:00,
2017-01-19 02:32:00,34.7,31.5,29.92,North,357,0.0,0.0,88,0.00,,OVC009,0.00,VWS V14.01,2017-01-19 07:32:00,
2017-01-19 02:42:00,34.7,31.5,29.92,North,357,0.0,0.0,88,0.00,,OVC009,0.00,VWS V14.01,2017-01-19 07:42:00,
2017-01-19 02:47:00,34.7,31.5,29.92,North,357,0.0,0.0,88,0.00,,OVC009,0.00,VWS V14.01,2017-01-19 07:47:00,
2017-01-19 02:52:00,34.7,31.5,29.92,North,357,0.0,0.0,88,0.00,,OVC009,0.00,VWS V14.01,2017-01-19 07:52:00,
2017-01-19 02:57:00,34.7,31.5,29.92,North,357,0.0,0.0,88,0.00,,OVC009,0.00,VWS V14.01,2017-01-19 07:57:00,
2017-01-19 03:02:00,34.7,31.5,29.92,North,357,0.0,0.0,88,0.00,,OVC009,0.00,VWS V14.01,2017-01-19 08:02:00,
2017-01-19 03:12:00,34.7,31.8,29.92,North,357,0.0,0.0,89,0.00,,OVC009,0.00,VWS V14.01,2017-01-19 08:12:00,
2017-01-19 03:17:00,34.9,32.0,29.92,North,357,0.0,0.0,89,0.00,,OVC009,0.00,VWS V14.01,2017-01-19 08:17:00,
2017-01-19 03:27:00,34.9,32.0,29.92,North,357,0.0,0.0,89,0.00,,OVC009,0.00,VWS V14.01,2017-01-19 08:27:00,
2017-01-19 03:32:00,34.9,32.0,29.92,North,357,0.0,0.0,89,0.00,,OVC009,0.00,VWS V14.01,2017-01-19 08:32:00,
2017-01-19 03:37:00,34.7,31.8,29.92,North,357,0.0,0.0,89,0.00,,OVC009,0.00,VWS V14.01,2017-01-19 08:37:00,
2017-01-19 03:47:00,34.7,31.8,29.92,North,357,0.0,0.0,89,0.00,,OVC009,0.00,VWS V14.01,2017-01-19 08:47:00,
2017-01-19 03:52:00,34.7,31.8,29.92,North,357,0.0,0.0,89,0.00,,OVC009,0.00,VWS V14.01,2017-01-19 08:52:00,
2017-01-19 03:57:00,34.7,31.8,29.92,North,357,0.0,0.0,89,0.00,,OVC009,0.00,VWS V14.01,2017-01-19 08:57:00,
2017-01-19 04:07:00,34.7,31.8,29.91,North,357,0.0,0.0,89,0.00,,OVC009,0.00,VWS V14.01,2017-01-19 09:07:00,
2017-01-19 04:12:00,34.7,31.8,29.91,North,357,0.0,0.0,89,0.00,,OVC009,0.00,VWS V14.01,2017-01-19 09:12:00,
2017-01-19 04:22:00,34.7,31.8,29.91,North,357,0.0,0.0,89,0.00,,OVC009,0.00,VWS V14.01,2017-01-19 09:22:00,
2017-01-19 04:27:00,34.7,31.8,29.91,North,357,0.0,0.0,89,0.00,,OVC009,0.00,VWS V14.01,2017-01-19 09:27:00,
2017-01-19 04:32:00,34.7,32.1,29.90,North,357,0.0,0.0,90,0.00,,OVC009,0.00,VWS V14.01,2017-01-19 09:32:00,
2017-01-19 04:42:00,34.7,32.1,29.90,North,357,0.0,0.0,90,0.00,,OVC008,0.00,VWS V14.01,2017-01-19 09:42:00,
2017-01-19 04:47:00,34.7,32.1,29.90,North,357,0.0,0.0,90,0.00,,OVC008,0.00,VWS V14.01,2017-01-19 09:47:00,
2017-01-19 04:52:00,34.7,32.1,29.90,North,357,0.0,0.0,90,0.00,,OVC008,0.00,VWS V14.01,2017-01-19 09:52:00,
2017-01-19 04:57:00,34.6,32.0,29.90,North,357,0.0,0.0,90,0.00,,OVC008,0.00,VWS V14.01,2017-01-19 09:57:00,
2017-01-19 05:02:00,34.6,32.0,29.89,North,357,0.0,0.0,90,0.00,,OVC008,0.00,VWS V14.01,2017-01-19 10:02:00,
2017-01-19 05:07:00,34.6,32.0,29.89,North,357,0.0,0.0,90,0.00,,OVC008,0.00,VWS V14.01,2017-01-19 10:07:00,
2017-01-19 05:12:00,34.6,32.0,29.89,North,357,0.0,0.0,90,0.00,,OVC008,0.00,VWS V14.01,2017-01-19 10:12:00,
2017-01-19 05:17:00,34.6,32.2,29.89,North,357,0.0,0.0,91,0.00,,OVC008,0.00,VWS V14.01,2017-01-19 10:17:00,
2017-01-19 05:27:00,34.6,32.2,29.89,North,357,0.0,0.0,91,0.00,,OVC008,0.00,VWS V14.01,2017-01-19 10:27:00,
2017-01-19 05:32:00,34.6,32.2,29.89,North,357,0.0,0.0,91,0.00,,OVC008,0.00,VWS V14.01,2017-01-19 10:32:00,
2017-01-19 05:37:00,34.6,32.2,29.89,North,356,0.0,0.0,91,0.00,,OVC008,0.00,VWS V14.01,2017-01-19 10:37:00,
2017-01-19 05:47:00,34.6,32.2,29.89,North,357,0.0,0.0,91,0.00,,,0.00,VWS V14.01,2017-01-19 10:47:00,
2017-01-19 05:52:00,34.6,32.2,29.89,North,357,0.0,0.0,91,0.00,,,0.00,VWS V14.01,2017-01-19 10:52:00,
2017-01-19 06:02:00,34.6,32.2,29.89,West,261,0.0,0.0,91,0.00,,,0.00,VWS V14.01,2017-01-19 11:02:00,
2017-01-19 06:12:00,34.6,32.5,29.89,West,261,0.0,0.0,92,0.00,,,0.00,VWS V14.01,2017-01-19 11:12:00,
2017-01-19 06:17:00,34.6,32.5,29.88,West,263,0.0,0.0,92,0.00,,,0.00,VWS V14.01,2017-01-19 11:17:00,
2017-01-19 06:22:00,34.6,32.5,29.88,West,261,0.0,0.0,92,0.00,,,0.00,VWS V14.01,2017-01-19 11:22:00,
2017-01-19 06:27:00,34.6,32.5,29.88,West,261,0.0,0.0,92,0.00,,,0.00,VWS V14.01,2017-01-19 11:27:00,
2017-01-19 06:32:00,34.6,32.5,29.88,WSW,257,0.0,0.0,92,0.00,,,0.00,VWS V14.01,2017-01-19 11:32:00,
2017-01-19 06:37:00,34.6,32.5,29.88,WSW,258,0.0,0.0,92,0.00,,,0.00,VWS V14.01,2017-01-19 11:37:00,
2017-01-19 06:47:00,34.6,32.5,29.88,West,260,0.0,0.0,92,0.00,,,0.00,VWS V14.01,2017-01-19 11:47:00,
2017-01-19 06:52:00,34.6,32.5,29.88,West,260,0.0,0.0,92,0.00,,,0.00,VWS V14.01,2017-01-19 11:52:00,
2017-01-19 06:57:00,34.6,32.5,29.88,West,261,0.0,0.0,92,0.00,,,0.00,VWS V14.01,2017-01-19 11:57:00,
2017-01-19 07:02:00,34.6,32.5,29.88,West,261,0.0,0.0,92,0.00,,,0.00,VWS V14.01,2017-01-19 12:02:00,
2017-01-19 07:07:00,34.6,32.5,29.88,WSW,258,0.0,0.0,92,0.00,,,0.00,VWS V14.01,2017-01-19 12:07:00,
2017-01-19 07:12:00,34.6,32.5,29.88,West,260,0.0,0.0,92,0.00,,,0.00,VWS V14.01,2017-01-19 12:12:00,
2017-01-19 07:17:00,34.6,32.5,29.88,West,260,0.0,0.0,92,0.00,,,0.00,VWS V14.01,2017-01-19 12:17:00,
2017-01-19 07:22:00,34.6,32.5,29.88,West,260,0.0,0.0,92,0.00,,,0.00,VWS V14.01,2017-01-19 12:22:00,
2017-01-19 07:27:00,34.6,32.5,29.88,WSW,257,0.0,0.0,92,0.00,,,0.00,VWS V14.01,2017-01-19 12:27:00,
2017-01-19 07:32:00,34.6,32.5,29.88,WSW,257,0.0,0.0,92,0.00,,,0.00,VWS V14.01,2017-01-19 12:32:00,
2017-01-19 07:37:00,34.6,32.5,29.88,West,260,0.0,0.0,92,0.00,,,0.00,VWS V14.01,2017-01-19 12:37:00,
2017-01-19 07:47:00,34.6,32.5,29.88,West,260,0.0,0.0,92,0.00,,,0.00,VWS V14.01,2017-01-19 12:47:00,
2017-01-19 07:52:00,34.4,32.3,29.88,WSW,257,0.0,0.0,92,0.00,,,0.00,VWS V14.01,2017-01-19 12:52:00,
2017-01-19 07:57:00,34.4,32.3,29.88,WSW,257,0.0,0.0,92,0.00,,,0.00,VWS V14.01,2017-01-19 12:57:00,
2017-01-19 08:07:00,34.6,32.5,29.87,WSW,257,0.0,0.0,92,0.00,,,0.00,VWS V14.01,2017-01-19 13:07:00,
2017-01-19 08:12:00,34.6,32.8,29.87,WSW,258,0.0,0.0,93,0.00,,,0.00,VWS V14.01,2017-01-19 13:12:00,
2017-01-19 08:17:00,34.4,32.6,29.88,WSW,257,0.0,0.0,93,0.00,,,0.00,VWS V14.01,2017-01-19 13:17:00,
2017-01-19 08:22:00,34.3,32.5,29.88,WSW,257,0.0,0.0,93,0.00,,,0.00,VWS V14.01,2017-01-19 13:22:00,
2017-01-19 08:27:00,34.3,32.5,29.88,WSW,257,0.0,0.0,93,0.00,,,0.00,VWS V14.01,2017-01-19 13:27:00,
2017-01-19 08:32:00,34.3,32.5,29.86,WSW,256,0.0,0.0,93,0.00,,,0.00,VWS V14.01,2017-01-19 13:32:00,
2017-01-19 08:42:00,34.3,32.5,29.86,WSW,253,0.0,0.0,93,0.00,,,0.00,VWS V14.01,2017-01-19 13:42:00,
2017-01-19 08:47:00,34.3,32.5,29.86,WSW,241,0.0,0.0,93,0.00,,,0.00,VWS V14.01,2017-01-19 13:47:00,
2017-01-19 08:57:00,34.3,32.5,29.86,WSW,240,0.0,0.0,93,0.00,,,0.00,VWS V14.01,2017-01-19 13:57:00,
2017-01-19 09:02:00,34.3,32.5,29.87,WSW,239,0.0,0.0,93,0.00,,,0.00,VWS V14.01,2017-01-19 14:02:00,
2017-01-19 09:07:00,34.1,32.3,29.87,SW,236,0.0,0.0,93,0.00,,,0.00,VWS V14.01,2017-01-19 14:07:00,
2017-01-19 09:12:00,34.3,32.5,29.87,SW,236,0.0,0.0,93,0.00,,,0.00,VWS V14.01,2017-01-19 14:12:00,
2017-01-19 09:22:00,34.1,32.3,29.87,SW,234,0.0,0.0,93,0.00,,,0.00,VWS V14.01,2017-01-19 14:22:00,
2017-01-19 09:27:00,34.3,32.5,29.87,SW,233,0.0,0.0,93,0.00,,,0.00,VWS V14.01,2017-01-19 14:27:00,
2017-01-19 09:32:00,34.1,32.3,29.86,SW,233,0.0,0.0,93,0.00,,,0.00,VWS V14.01,2017-01-19 14:32:00,
2017-01-19 09:37:00,34.3,32.8,29.86,SW,234,0.0,0.0,94,0.00,,,0.00,VWS V14.01,2017-01-19 14:37:00,
2017-01-19 09:42:00,34.3,32.8,29.86,SW,227,0.0,0.0,94,0.00,,,0.00,VWS V14.01,2017-01-19 14:42:00,
2017-01-19 09:47:00,34.3,32.8,29.86,SW,226,0.0,0.0,94,0.00,,,0.00,VWS V14.01,2017-01-19 14:47:00,
2017-01-19 09:52:00,34.3,32.8,29.86,SW,227,0.0,0.0,94,0.00,,,0.00,VWS V14.01,2017-01-19 14:52:00,
2017-01-19 10:02:00,34.7,33.2,29.87,SW,227,0.0,0.0,94,0.00,,,0.00,VWS V14.01,2017-01-19 15:02:00,
2017-01-19 10:07:00,34.7,33.2,29.87,SW,227,0.0,0.0,94,0.00,,,0.00,VWS V14.01,2017-01-19 15:07:00,
2017-01-19 10:12:00,35.0,33.5,29.87,SW,226,0.0,0.0,94,0.00,,,0.00,VWS V14.01,2017-01-19 15:12:00,
2017-01-19 10:17:00,34.9,33.3,29.86,SW,229,0.0,0.0,94,0.00,,,0.00,VWS V14.01,2017-01-19 15:17:00,
2017-01-19 10:22:00,34.9,33.3,29.86,SW,227,0.0,0.0,94,0.00,,,0.00,VWS V14.01,2017-01-19 15:22:00,
2017-01-19 10:27:00,34.9,33.3,29.86,SW,226,0.0,0.0,94,0.00,,,0.00,VWS V14.01,2017-01-19 15:27:00,
2017-01-19 10:32:00,34.9,33.3,29.86,SW,224,0.0,0.0,94,0.00,,,0.00,VWS V14.01,2017-01-19 15:32:00,
2017-01-19 10:37:00,34.9,33.3,29.86,SW,222,0.0,0.0,94,0.00,,,0.00,VWS V14.01,2017-01-19 15:37:00,
2017-01-19 10:42:00,34.9,33.3,29.86,SW,222,0.0,0.0,94,0.00,,,0.00,VWS V14.01,2017-01-19 15:42:00,
2017-01-19 10:47:00,35.0,33.5,29.85,SW,220,0.0,0.0,94,0.00,,,0.00,VWS V14.01,2017-01-19 15:47:00,
2017-01-19 10:57:00,35.2,33.7,29.85,SW,222,0.0,0.0,94,0.00,,,0.00,VWS V14.01,2017-01-19 15:57:00,
2017-01-19 11:02:00,35.5,34.0,29.84,SW,219,0.0,0.0,94,0.00,,,0.00,VWS V14.01,2017-01-19 16:02:00,
2017-01-19 11:12:00,35.5,34.0,29.84,SW,219,0.0,0.0,94,0.00,,,0.00,VWS V14.01,2017-01-19 16:12:00,
2017-01-19 11:17:00,35.5,34.0,29.85,SW,220,0.0,0.0,94,0.00,,,0.00,VWS V14.01,2017-01-19 16:17:00,
2017-01-19 11:22:00,35.5,34.0,29.85,SW,219,0.0,0.0,94,0.00,,,0.00,VWS V14.01,2017-01-19 16:22:00,
2017-01-19 11:27:00,35.6,34.0,29.85,SW,220,0.0,0.0,94,0.00,,,0.00,VWS V14.01,2017-01-19 16:27:00,
2017-01-19 11:37:00,35.9,34.3,29.84,SW,219,0.0,0.0,94,0.00,,,0.00,VWS V14.01,2017-01-19 16:37:00,
2017-01-19 11:42:00,36.0,34.4,29.84,SW,220,0.0,0.0,94,0.00,,,0.00,VWS V14.01,2017-01-19 16:42:00,
2017-01-19 11:47:00,36.0,34.4,29.83,SW,219,0.0,0.0,94,0.00,,,0.00,VWS V14.01,2017-01-19 16:47:00,
2017-01-19 11:52:00,35.9,34.3,29.83,SW,217,0.0,0.0,94,0.00,,,0.00,VWS V14.01,2017-01-19 16:52:00,
2017-01-19 11:57:00,36.0,34.4,29.83,SW,220,0.0,0.0,94,0.00,,,0.00,VWS V14.01,2017-01-19 16:57:00,
2017-01-19 12:02:00,36.2,34.4,29.82,SW,219,0.0,0.0,93,0.00,,,0.00,VWS V14.01,2017-01-19 17:02:00,
2017-01-19 12:07:00,36.5,34.7,29.82,SW,215,0.0,0.0,93,0.00,,,0.00,VWS V14.01,2017-01-19 17:07:00,
2017-01-19 12:12:00,36.8,35.0,29.82,SW,217,0.0,0.0,93,0.00,,,0.00,VWS V14.01,2017-01-19 17:12:00,
2017-01-19 12:17:00,36.9,35.1,29.80,SW,217,0.0,0.0,93,0.00,,,0.00,VWS V14.01,2017-01-19 17:17:00,
2017-01-19 12:27:00,36.9,34.8,29.80,SW,217,0.0,0.0,92,0.00,,,0.00,VWS V14.01,2017-01-19 17:27:00,
2017-01-19 12:32:00,36.9,34.8,29.80,SW,217,0.0,0.0,92,0.00,,,0.00,VWS V14.01,2017-01-19 17:32:00,
2017-01-19 12:42:00,36.9,34.8,29.80,SW,215,0.0,0.0,92,0.00,,,0.00,VWS V14.01,2017-01-19 17:42:00,
2017-01-19 12:47:00,37.0,34.9,29.80,SW,215,0.0,0.0,92,0.00,,,0.00,VWS V14.01,2017-01-19 17:47:00,
2017-01-19 12:52:00,37.2,35.1,29.80,SW,215,0.0,0.0,92,0.00,,,0.00,VWS V14.01,2017-01-19 17:52:00,
2017-01-19 12:57:00,37.0,34.9,29.80,SW,215,0.0,0.0,92,0.00,,,0.00,VWS V14.01,2017-01-19 17:57:00,
2017-01-19 13:07:00,37.2,35.1,29.82,SW,217,0.0,0.0,92,0.00,,,0.00,VWS V14.01,2017-01-19 18:07:00,
2017-01-19 13:12:00,37.2,34.8,29.82,SW,217,0.0,0.0,91,0.00,,,0.00,VWS V14.01,2017-01-19 18:12:00,
2017-01-19 13:17:00,37.3,35.2,29.81,SW,215,0.0,0.0,92,0.00,,,0.00,VWS V14.01,2017-01-19 18:17:00,
2017-01-19 13:22:00,37.6,35.2,29.81,SW,216,0.0,0.0,91,0.00,,,0.00,VWS V14.01,2017-01-19 18:22:00,
2017-01-19 13:27:00,37.8,35.4,29.81,SW,216,0.0,0.0,91,0.00,,,0.00,VWS V14.01,2017-01-19 18:27:00,
2017-01-19 13:32:00,37.9,35.5,29.79,SW,217,0.0,0.0,91,0.00,,,0.00,VWS V14.01,2017-01-19 18:32:00,
2017-01-19 13:37:00,38.0,35.6,29.79,SW,216,0.0,0.0,91,0.00,,,0.00,VWS V14.01,2017-01-19 18:37:00,
2017-01-19 13:42:00,38.0,35.3,29.79,SSW,213,0.0,0.0,90,0.00,,,0.00,VWS V14.01,2017-01-19 18:42:00,
2017-01-19 13:52:00,38.0,35.0,29.78,SW,216,0.0,0.0,89,0.00,,,0.00,VWS V14.01,2017-01-19 18:52:00,
2017-01-19 13:57:00,38.3,35.3,29.78,SW,216,0.0,0.0,89,0.00,,,0.00,VWS V14.01,2017-01-19 18:57:00,
2017-01-19 14:02:00,38.3,35.3,29.77,SW,216,0.0,0.0,89,0.00,,,0.00,VWS V14.01,2017-01-19 19:02:00,
2017-01-19 14:07:00,38.5,35.5,29.77,SW,216,0.0,0.0,89,0.00,,,0.00,VWS V14.01,2017-01-19 19:07:00,
2017-01-19 14:12:00,38.5,35.3,29.77,SSW,213,0.0,0.0,88,0.00,,,0.00,VWS V14.01,2017-01-19 19:12:00,
2017-01-19 14:17:00,38.5,35.3,29.77,SSW,213,0.0,0.0,88,0.00,,,0.00,VWS V14.01,2017-01-19 19:17:00,
2017-01-19 14:27:00,38.6,35.1,29.77,SSW,210,0.0,0.0,87,0.00,,,0.00,VWS V14.01,2017-01-19 19:27:00,
2017-01-19 14:32:00,38.9,35.7,29.75,SSW,212,0.0,0.0,88,0.00,,,0.00,VWS V14.01,2017-01-19 19:32:00,
2017-01-19 14:37:00,39.2,35.7,29.75,SSW,212,0.0,0.0,87,0.00,,,0.00,VWS V14.01,2017-01-19 19:37:00,
2017-01-19 14:42:00,38.9,35.1,29.75,SSW,208,0.0,0.0,86,0.00,,,0.00,VWS V14.01,2017-01-19 19:42:00,
2017-01-19 14:47:00,38.9,35.1,29.75,SSW,210,0.0,0.0,86,0.00,,,0.00,VWS V14.01,2017-01-19 19:47:00,
2017-01-19 14:52:00,38.9,35.1,29.75,SSW,208,0.0,0.0,86,0.00,,,0.00,VWS V14.01,2017-01-19 19:52:00,
2017-01-19 14:57:00,39.1,35.3,29.75,SSW,208,0.0,0.0,86,0.00,,,0.00,VWS V14.01,2017-01-19 19:57:00,
2017-01-19 15:02:00,38.9,34.8,29.75,SSW,209,0.0,0.0,85,0.00,,,0.00,VWS V14.01,2017-01-19 20:02:00,
2017-01-19 15:12:00,39.2,35.1,29.75,SSW,208,0.0,0.0,85,0.00,,,0.00,VWS V14.01,2017-01-19 20:12:00,
2017-01-19 15:17:00,39.2,35.1,29.75,SSW,208,0.0,0.0,85,0.00,,,0.00,VWS V14.01,2017-01-19 20:17:00,
2017-01-19 15:22:00,39.2,35.1,29.75,SSW,206,0.0,0.0,85,0.00,,,0.00,VWS V14.01,2017-01-19 20:22:00,
2017-01-19 15:27:00,39.2,34.8,29.75,SSW,208,0.0,0.0,84,0.00,,,0.00,VWS V14.01,2017-01-19 20:27:00,
2017-01-19 15:32:00,39.3,35.2,29.75,SW,217,0.0,0.0,85,0.00,,,0.00,VWS V14.01,2017-01-19 20:32:00,
2017-01-19 15:37:00,39.3,35.2,29.75,SW,216,0.0,0.0,85,0.00,,,0.00,VWS V14.01,2017-01-19 20:37:00,
2017-01-19 15:42:00,39.5,35.1,29.75,SW,216,0.0,0.0,84,0.00,,,0.00,VWS V14.01,2017-01-19 20:42:00,
2017-01-19 15:47:00,39.3,34.9,29.73,SW,223,0.0,0.0,84,0.00,,,0.00,VWS V14.01,2017-01-19 20:47:00,
2017-01-19 15:57:00,39.5,35.1,29.73,SW,216,0.0,0.0,84,0.00,,,0.00,VWS V14.01,2017-01-19 20:57:00,
2017-01-19 16:07:00,39.6,35.2,29.74,SW,220,0.0,0.0,84,0.00,,,0.00,VWS V14.01,2017-01-19 21:07:00,
2017-01-19 16:12:00,39.8,35.4,29.74,SW,216,0.0,0.0,84,0.00,,,0.00,VWS V14.01,2017-01-19 21:12:00,
2017-01-19 16:17:00,39.8,35.4,29.72,SW,220,0.0,0.0,84,0.00,,,0.00,VWS V14.01,2017-01-19 21:17:00,
2017-01-19 16:22:00,39.6,35.2,29.72,SW,219,0.0,0.0,84,0.00,,,0.00,VWS V14.01,2017-01-19 21:22:00,
2017-01-19 16:27:00,39.6,35.2,29.72,SW,217,0.0,0.0,84,0.00,,,0.00,VWS V14.01,2017-01-19 21:27:00,